TITAN 3C TRANSTAGE DEB, 26048

Orbit data source: Space-Track

TITAN 3C TRANSTAGE DEB, 26048 is space debris in HEO originally from a launch on Tue, 21 Dec 1965 UTC launched from the Air Force Eastern Test Range (AFETR). Debris objects in space refer to the collection of defunct objects orbiting the Earth. Examples of debris include non-operational satellites, rocket bodies, and fragments generated from explosions, collisions, or faulty payload assembly.

Loading next visibility...
Identifier
26048, 1965-108AG
Orbit
HEO
Country
Flag of USUS
Related business
Manufacturer
Unknown
Mission
Spacecraft
Bus & Motor
Unknown
Mass
Unknown
Launch date (UTC)
1965-12-21 (60 years ago)
Launch vehicle
Unknown
Launch site
Air Force Eastern Test Range (AFETR)
Object type
Payload
Rocket body
Debris
Shape & HBR
Unknown
Radar Cross Section
Medium (>0.1 m² and <1 m²)

Expand to show TLE details & history
Last TLE update: 2 days ago

TLE from 2 days ago
0 TITAN 3C TRANSTAGE DEB
1 26048U 65108AG  25244.60858849  .00003016  00000-0  11086-2 0  9993
2 26048  26.4132 265.3352 6268310 224.1915  63.9897  3.62186499322687
Epoch: 2025-09-01T14:36Z
TLE epoch observation values (Epoch: 2025-09-01T14:36:22.045Z)
Latitude
-0.00002°
Longitude
65.22031°
Altitude
13,362.244 km
Speed
4.258 km/s
True Right ascension
17h 41m 17s
True Declination
0° 00' 00"
Sunlit
Object was in daylight at epoch
Visualization orbit readout
Latitude
Unknown
Longitude
Unknown
Altitude
Unknown
Speed
Unknown
Apparent Right ascension
Unknown
Apparent Declination
Unknown
Sunlit
N/A
Visualization observer readout
Local Sidereal Time
23:42:45
Azimuth
Unknown
Elevation
Unknown
Doppler factor
Unknown
Orbital elements
Apogee altitude
22,765.585 km
Perigee altitude
306.966 km
Semi-major axis
17,914.413 km
Eccentricity
0.62683
Inclination
26.4132°
RAAN
265.3352°
Arg. of periapsis
224.1915°
True anomaly
135.80311°
Mean anomaly
63.9897°
Eccentric anomaly
99.42015°
Mean motion
0.90519 °/min
Orbital period
397.71 mins
BSTAR
0.0011086
Loading maneuver chart data...
Computing Atmospheric mass density...

Documentation

Showing up to 5 results
|